RH
18 20 22 23 24 23 26 27 37 27 26 33 44 44 55 42 45 43 41 42 42 44 45 47 53 56 58 61 70 93 85 73 69 69 69 74 77 81 76 71 59 58 58 58
39 23 20 24 21 22 22 23 24 26 30 40 34 33 39 42 47 46 44 39 38 39 40 42 45 46 50 58 59 66 76 68 57 60 58 60 64 62 63 63 59 59 59 60
38 27 30 40 31 26 29 35 53 50 39 36 39 41 48 49 49 49 42 39 40 41 41 43 44 43 50 55 54 56 59 59 57 55 55 57 55 57 60 62 62 62 63 62
41 40 55 37 28 27 36 37 32 38 40 41 41 40 46 50 46 44 41 40 39 39 40 40 41 43 49 49 52 57 57 58 58 56 56 52 54 58 60 59 65 66 66 64
57 41 37 41 38 39 41 41 39 45 42 42 37 39 70 48 42 43 42 39 37 37 38 38 39 42 47 50 51 56 59 59 56 54 54 54 57 60 59 60 60 62 61 65
49 52 48 50 41 35 40 62 50 48 54 55 46 53 55 49 45 42 38 37 36 37 36 37 38 41 45 50 52 57 61 61 54 54 53 53 56 58 57 58 58 60 65 71
57 64 48 42 37 39 65 86 58 58 59 72 79 70 59 49 45 39 37 37 35 35 37 36 38 41 48 47 55 57 58 58 56 55 55 52 56 56 57 58 63 70 73 69
60 77 68 36 43 59 71 62 63 64 65 75 69 56 48 41 38 36 35 34 33 36 36 35 36 40 42 48 53 55 58 60 60 60 55 53 61 61 61 65 73 78 80 75
56 68 53 43 58 65 58 63 67 63 61 54 52 45 41 39 37 35 34 32 32 34 37 37 37 38 44 49 51 59 63 68 66 66 64 67 73 74 73 73 77 80 82 82
70 62 51 64 56 57 58 64 58 52 48 46 48 44 43 38 33 32 33 36 34 36 38 42 40 40 43 51 56 63 80 89 89 91 87 82 78 81 85 87 85 84 86 86
75 63 59 58 57 62 64 62 54 48 46 46 44 42 41 38 35 37 40 38 40 43 45 44 42 44 46 54 61 67 83 90 92 89 88 88 86 88 87 91 83 88 90 92
70 80 79 67 76 66 71 60 50 46 43 40 38 39 39 39 41 48 51 50 52 52 51 49 47 51 56 60 68 78 82 84 87 88 88 88 86 86 76 74 71 70 73 80
46 51 57 64 59 52 52 51 47 40 41 39 36 36 39 46 60 66 66 67 70 71 66 59 59 62 66 74 76 81 85 84 82 85 88 90 91 90 92 83 70 69 71 70
42 47 56 48 51 46 47 45 41 35 36 36 38 38 41 51 74 80 82 83 80 78 76 81 81 81 85 79 84 86 87 84 87 89 92 90 90 88 89 90 90 88 75 75
46 43 46 44 44 41 37 36 37 36 38 38 38 46 51 63 73 81 81 82 82 79 82 81 82 82 83 87 85 84 86 84 86 90 87 85 83 83 86 86 89 88 86 77
44 43 44 45 40 38 36 37 39 38 38 38 42 49 47 54 58 72 79 81 83 84 85 86 83 83 86 87 83 86 80 77 78 78 84 83 83 84 86 87 88 89 89 89
55 58 51 49 45 42 39 39 41 40 42 44 51 54 54 61 63 77 80 80 78 78 87 84 88 85 87 84 81 77 80 73 78 81 79 84 85 86 87 87 87 85 88 87
46 47 42 42 43 44 44 45 44 46 51 57 76 81 82 84 83 81 80 77 78 76 80 79 82 80 83 78 72 72 73 73 77 87 83 88 83 85 85 84 80 83 83 80
47 52 47 42 42 44 46 48 51 58 76 81 80 82 79 79 81 81 81 80 80 78 77 81 72 73 66 69 64 73 74 81 81 78 84 83 86 85 90 83 81 81 82 83
42 43 46 50 51 50 56 62 66 75 80 78 81 77 80 77 79 80 78 82 76 78 67 71 65 68 64 61 71 65 73 78 82 84 86 81 86 88 86 82 79 81 85 88
50 49 56 60 70 80 86 84 81 79 85 85 84 84 86 80 74 80 74 64 71 73 64 70 62 62 57 60 65 74 84 84 86 87 87 88 88 86 87 87 88 87 86 86
77 82 84 82 80 83 82 78 78 82 79 81 82 80 80 84 76 80 84 73 62 70 70 66 64 73 67 84 76 84 76 80 84 86 87 88 88 90 90 89 90 90 89 89
85 84 84 84 80 80 80 80 80 78 78 78 79 80 77 72 71 73 78 69 62 67 75 72 73 76 75 90 82 85 88 81 83 86 87 88 88 86 89 90 90 91 90 90
83 81 82 80 80 75 80 81 76 79 81 78 84 84 75 80 80 70 64 70 75 78 88 82 77 74 82 89 86 84 86 84 84 87 80 78 85 85 84 82 85 90 90 89
80 79 80 79 75 69 71 71 75 79 81 82 74 76 73 66 83 75 81 76 79 72 80 86 77 75 86 85 84 84 86 85 85 85 87 82 83 84 82 86 83 85 86 87
81 74 72 76 68 58 56 57 65 67 67 75 82 77 80 77 77 78 75 82 75 73 82 87 84 80 82 81 82 82 83 83 81 84 85 84 81 80 82 80 81 81 81 80
78 68 64 62 58 59 64 66 76 80 74 79 81 78 71 74 82 73 75 79 79 84 85 87 87 80 77 82 80 79 80 82 84 82 86 87 86 83 82 82 80 80 79 77
Wind_Speed
11 4 4 7 11 13 15 15 15 16 17 12 10 11 8 12 12 15 16 17 16 16 16 16 16 16 15 16 14 15 15 14 16 16 14 15 16 14 13 12 11 12 10 8
8 10 10 11 14 16 15 15 14 15 14 6 10 12 13 13 12 15 16 16 16 16 17 17 17 16 16 16 16 14 15 16 14 15 15 14 14 12 10 11 12 10 10 9
10 8 10 13 16 12 10 2 5 10 11 12 11 12 11 10 10 13 14 15 15 15 15 15 16 16 17 16 16 16 14 16 17 16 14 14 13 13 12 10 10 11 11 10
4 5 13 4 5 3 2 8 10 5 7 7 9 8 5 5 11 13 14 14 14 14 14 15 15 15 15 15 15 16 16 16 16 16 18 17 15 15 15 13 12 12 11 13
5 12 6 8 7 5 5 4 4 4 5 7 8 10 3 6 10 11 12 12 12 13 14 13 14 16 16 15 14 15 16 16 16 16 16 16 15 14 12 12 12 13 13 14
8 10 8 10 9 4 3 10 8 4 4 5 9 7 5 11 11 11 12 11 13 14 13 13 13 13 15 14 15 16 17 16 16 15 14 15 16 16 14 13 13 11 13 12
10 6 1 9 8 5 8 4 6 4 2 2 5 5 10 10 9 10 12 12 13 13 13 13 13 14 14 14 15 15 15 15 15 15 16 15 14 13 13 13 12 12 12 12
9 6 9 10 8 6 5 5 3 3 2 3 6 7 7 8 10 11 12 13 12 12 13 13 13 13 15 15 16 16 15 15 14 14 11 11 14 12 13 12 12 11 12 12
2 1 7 5 3 4 1 4 4 3 3 4 6 6 9 9 9 9 11 11 11 12 13 12 13 14 15 15 15 16 16 15 14 14 13 12 12 11 10 11 10 10 9 9
3 7 8 5 4 4 3 3 3 2 2 4 5 6 8 9 10 10 11 11 12 14 14 14 14 14 14 15 15 16 14 13 11 11 12 11 9 8 8 8 10 10 10 11
4 5 6 5 6 5 4 4 3 1 3 4 5 6 8 9 10 11 11 12 12 13 13 14 15 15 15 15 15 15 13 11 10 9 10 10 8 8 8 7 8 9 8 9
1 8 5 7 7 7 7 6 2 2 1 3 5 8 8 9 9 11 11 12 12 13 14 15 15 15 14 14 14 14 13 10 10 9 9 8 9 8 10 10 12 12 13 12
2 7 7 10 9 8 6 3 2 1 3 4 6 7 8 8 10 10 10 10 11 13 13 14 15 14 13 13 13 13 12 11 9 9 8 9 9 9 10 10 14 14 15 17
10 10 10 10 7 6 6 5 3 3 4 5 6 7 8 7 7 7 8 10 11 11 11 11 12 13 12 13 13 12 11 12 9 9 8 8 8 9 9 10 11 9 11 16
8 2 6 10 8 7 5 5 2 2 5 5 6 7 7 7 7 6 7 8 10 9 10 11 11 12 13 12 13 15 11 8 9 8 9 10 10 10 9 9 9 9 10 12
7 7 8 7 7 5 4 3 1 2 4 5 6 7 8 7 6 7 8 8 9 9 9 11 11 13 13 12 13 12 10 12 11 9 9 9 9 9 9 9 9 9 9 10
8 7 6 6 5 4 4 5 4 4 5 5 7 8 9 9 7 8 8 8 8 9 7 10 11 11 12 11 13 10 8 9 12 7 8 8 8 8 8 8 8 9 9 10
6 7 3 5 6 5 5 4 4 3 5 6 5 4 5 7 8 9 9 9 9 9 9 12 11 13 12 12 12 10 9 9 8 8 7 7 8 7 7 8 8 8 9 10
10 10 8 7 6 5 5 4 5 5 4 3 3 5 5 6 8 9 10 10 7 10 12 12 15 14 13 14 13 9 9 10 9 8 7 9 7 7 7 8 8 8 9 9
11 10 10 9 8 5 6 6 2 5 4 3 3 4 6 6 6 8 10 9 9 9 13 12 13 12 14 14 15 9 10 10 9 8 7 8 7 7 7 9 9 9 9 9
9 9 8 8 8 7 6 4 3 3 3 3 4 5 6 8 5 7 8 8 11 12 13 12 11 11 11 13 11 9 9 9 9 9 9 9 9 8 8 8 8 8 8 8
8 8 8 7 6 6 4 3 4 2 1 2 2 4 7 6 5 6 3 6 8 13 11 8 10 14 12 15 9 9 10 10 9 9 8 9 9 9 9 9 8 8 8 8
8 8 7 6 4 5 4 4 2 2 0 2 4 6 7 6 5 5 6 8 8 11 9 8 12 14 16 8 9 9 9 10 10 9 9 8 8 8 8 8 8 8 8 8
8 8 7 6 5 4 3 5 1 4 1 3 4 1 6 5 6 5 6 8 9 11 8 7 10 14 13 8 8 9 9 9 9 9 9 10 8 8 8 8 8 8 7 8
8 7 7 5 5 4 3 4 4 5 5 2 0 1 4 4 4 6 5 6 8 8 8 8 10 14 8 8 8 8 8 8 9 8 8 8 8 8 8 7 7 8 7 7
8 5 5 3 3 2 2 0 2 2 3 3 2 3 3 3 4 5 5 6 7 8 6 6 7 8 8 8 8 8 8 8 8 8 8 7 8 7 8 8 8 7 7 7
6 5 5 4 3 2 2 2 2 1 1 3 3 3 4 4 4 5 6 6 6 6 6 6 6 7 8 8 8 8 7 8 8 8 8 7 7 7 7 7 7 7 6 7
Wind_Direction
259 238 244 208 212 218 233 247 260 279 297 0 357 356 360 324 336 327 332 335 336 339 339 340 345 342 346 345 350 341 347 344 356 348 352 351 347 333 345 351 348 349 344 352
255 247 244 245 239 245 251 260 273 285 295 11 351 336 345 335 339 329 332 335 340 340 343 340 342 343 344 342 344 349 350 344 350 352 352 350 335 339 343 330 339 345 348 356
253 192 215 242 233 227 236 274 297 277 326 347 333 338 335 343 335 329 333 340 340 341 341 340 339 344 345 341 343 344 353 348 348 348 349 348 340 340 339 337 334 1 348 348
275 174 234 115 47 83 225 251 245 257 292 312 318 328 354 0 327 338 336 339 338 338 339 337 339 346 340 339 345 345 350 348 347 348 345 344 346 346 343 344 356 356 335 354
230 225 150 171 189 218 241 265 174 252 268 307 316 300 146 347 344 331 329 332 334 337 333 335 345 345 338 343 345 351 349 345 342 341 343 343 347 342 344 340 345 353 347 344
215 257 251 77 113 138 138 257 148 215 268 297 314 295 94 353 335 325 330 332 335 333 331 337 347 349 336 342 350 351 345 337 341 342 343 343 345 342 348 345 353 348 348 352
237 244 302 142 141 169 236 86 160 249 248 331 310 313 310 320 313 327 329 331 335 336 331 340 344 347 338 343 355 345 339 337 343 341 341 344 344 343 347 351 346 347 348 345
242 226 243 149 147 235 84 134 178 194 236 276 280 295 309 312 325 332 334 333 339 334 335 338 344 345 340 350 347 344 338 340 341 342 343 345 345 347 350 352 346 347 348 355
178 66 124 110 78 89 106 150 177 207 238 276 295 321 318 326 325 332 331 338 341 335 331 341 344 345 339 348 343 341 341 339 338 340 345 345 344 351 348 353 351 350 350 348
185 190 175 142 124 158 140 163 204 237 316 305 325 321 320 331 331 336 345 345 340 334 337 338 344 341 343 346 344 340 339 329 333 340 337 344 343 345 348 351 352 346 340 341
214 208 125 203 161 175 161 181 199 149 351 350 332 330 338 329 340 344 344 343 344 340 340 339 340 340 345 347 344 338 332 328 339 338 339 339 343 344 347 354 341 332 338 334
277 171 176 151 143 161 168 193 164 304 299 352 344 337 340 337 352 356 344 346 345 343 340 339 339 339 344 344 340 334 330 331 334 332 340 341 338 338 341 344 342 346 348 346
142 149 105 144 161 172 169 112 102 49 27 349 1 347 348 347 8 346 345 346 342 333 332 334 336 338 337 338 334 331 326 326 328 337 340 341 339 337 335 342 343 351 354 349
108 126 131 156 145 129 136 125 146 75 46 20 3 356 358 2 3 352 351 347 334 327 338 341 334 331 337 332 331 326 319 327 341 334 330 336 334 339 337 337 341 346 355 360
146 28 120 108 128 132 138 148 135 42 12 13 22 1 1 355 340 359 359 343 328 332 350 335 334 336 335 329 334 326 329 335 340 331 331 339 340 340 341 340 342 340 347 3
127 120 125 136 131 132 131 111 103 37 9 10 15 3 353 349 342 8 352 353 343 344 328 340 341 341 326 334 337 321 332 338 337 333 338 342 341 341 344 345 348 352 356 0
151 151 143 137 149 137 98 76 55 34 15 15 19 4 355 353 343 1 348 343 335 327 339 348 342 331 324 338 339 326 331 336 337 334 343 341 342 344 348 346 351 353 355 3
87 93 99 121 131 135 116 88 72 38 33 27 23 360 356 352 349 344 343 334 327 338 7 346 341 329 334 344 342 328 339 339 338 339 345 341 342 346 350 349 353 357 358 1
90 92 94 96 88 95 102 96 68 55 46 25 7 359 345 349 347 342 322 320 339 352 352 339 341 338 343 351 342 335 343 338 339 344 345 338 346 350 355 356 356 2 5 6
115 109 103 89 69 67 82 63 30 75 30 23 331 359 349 350 347 333 322 335 19 11 331 342 345 353 341 349 340 346 346 343 344 344 348 342 352 352 359 3 2 6 12 12
113 109 107 103 94 82 78 89 73 73 70 31 355 4 332 311 339 302 331 346 6 4 339 344 0 0 339 343 336 352 352 349 349 349 350 352 352 356 3 5 7 12 14 15
114 108 111 112 106 95 90 72 86 86 31 23 10 316 311 316 343 342 109 10 348 4 334 359 3 349 334 330 351 353 354 357 354 352 357 355 357 357 2 3 10 12 18 20
125 129 125 123 125 106 113 92 77 67 114 36 15 358 331 328 343 350 342 9 349 354 323 9 350 340 336 347 355 355 357 1 357 358 358 357 358 359 3 3 5 14 20 19
131 133 132 120 131 162 167 123 188 117 220 240 139 235 322 347 338 24 353 346 1 336 348 21 353 342 337 354 358 356 359 5 3 356 359 3 1 3 6 11 5 12 19 21
134 131 134 158 178 150 155 141 187 193 211 209 150 50 352 358 341 342 343 347 343 345 346 11 1 345 354 358 358 357 357 12 357 357 360 5 8 9 8 10 14 15 21 27
155 163 140 50 33 84 100 271 66 50 337 3 57 23 354 352 349 333 351 351 344 349 350 351 2 353 353 356 355 1 356 10 7 358 1 9 8 15 10 12 13 20 20 24
132 144 140 145 149 145 39 26 326 60 57 359 354 22 357 352 350 338 345 353 348 349 352 355 2 4 354 352 359 1 3 6 12 3 7 8 10 16 13 13 15 14 27 30